Flag for U.S.A. Weather past 2 weeks in Topeka, Kansas, U.S.A.

Now
35 °F

Light rain. Fog.


Feels Like: 29 °F
Forecast: 37 / 41 °F
Wind: 8 mph from Southeast

Location: Philip Billard Municipal Airport

Current Time: Jan 31, 2015 at 4:58:44 PM

Latest Report: Jan 31, 2015 at 3:53 PM


Visibility: 3 mi

Pressure: 30.03 "Hg

Humidity: 96%

Dew point: 34 °F

Location of TopekaLocation

Historic Weather in Topeka — Graph

°F

Topeka temperature yesterday

Maximum temperature yesterday: 41 °F (at 3:53 PM)
Minimum temperature yesterday: 18 °F (at 4:53 AM)
Average temperature yesterday: 31 °F

Past Weeks' High & Low Weather Summary

 TemperatureHumidityPressure
High77 °F (Jan 28, 2:53 PM)97% (Jan 31, 2:53 PM)30.61 "Hg (Jan 31, 2:53 PM)
Low18 °F (Jan 23, 4:53 AM)20% (Jan 16, 2:53 PM)29.67 "Hg (Jan 28, 2:53 PM)
Average40 °F62%30.11 "Hg
* Reported Jan 16 2:53 PM — Jan 31 2:53 PM, Topeka, Weather by CustomWeather, © 2014

Note: Actual official high and low records may vary slightly from our data, if they occured in-between our weather recording intervals... More about our weather records

Advertising

Topeka weather history for previous 24 hours

 ConditionsComfort  
Time TempWeatherWind HumidityBarometerVisibility
2:53 PM
Jan 31
34 °FLight rain. Fog.7 mph97%30.08 "Hg3 mi
1:53 PM36 °FLight rain. Fog.9 mph92%30.11 "Hg4 mi
12:53 PM37 °FLight rain. Fog.6 mph93%30.16 "Hg4 mi
11:53 AM38 °FLight rain. Fog.8 mph93%30.19 "Hg4 mi
10:53 AM39 °FLight rain. Fog.9 mph89%30.21 "Hg5 mi
9:53 AM38 °FMostly cloudy.6 mph93%30.22 "Hg8 mi
9:02 AM37 °FMostly cloudy.6 mph96%30.21 "Hg8 mi
8:53 AM37 °FFog.6 mph96%30.23 "Hg6 mi
7:53 AM35 °FFog.7 mph96%30.22 "Hg4 mi
6:53 AM35 °FLight rain. Fog.5 mph96%30.24 "Hg4 mi
5:53 AM35 °FLight rain. Fog.3 mph96%30.27 "Hg4 mi
4:53 AM35 °FLight rain. Fog.3 mph92%30.28 "Hg5 mi
3:53 AM35 °FLight rain. Fog.3 mph96%30.29 "Hg5 mi
2:53 AM35 °FLight rain. Overcast.No wind92%30.31 "Hg7 mi
1:53 AM36 °FOvercast.5 mph82%30.32 "Hg10 mi
12:53 AM37 °FLight rain. Mostly cloudy.6 mph76%30.33 "Hg8 mi
11:53 PM
Jan 30
38 °FLight rain. Mostly cloudy.5 mph63%30.35 "Hg10 mi
10:53 PM39 °FOvercast.No wind55%30.35 "Hg10 mi
9:53 PM39 °FClear.5 mph55%30.38 "Hg10 mi
8:53 PM37 °FClear.5 mph57%30.40 "Hg10 mi
7:53 PM37 °FClear.6 mph57%30.41 "Hg10 mi
6:53 PM36 °FClear.5 mph57%30.41 "Hg10 mi
5:53 PM38 °FClear.5 mph51%30.42 "Hg10 mi
4:53 PM41 °FSunny.7 mph45%30.44 "Hg10 mi
Weather by CustomWeather, © 2014

See weather overviewHow to use our weather pages